Regional Weather Roundup
Issued by NWS

Home | Current Version | Previous Version | Graphics & Text | Print | Product List | Glossary On
Versions: 1 2 3 4 5 6 7 8 9 10 11 12 13 14 15 16 17 18 19 20 21 22 23 24 25 26 27 28 29 30 31 32 33 34 35 36 37 38 39 40 41 42 43 44 45 46 47 48 49 50
141
ASUS43 KLSX 240407
RWRMO

WEATHER SUMMARY FOR MISSOURI
NATIONAL WEATHER SERVICE SPRINGFIELD MO
1100 PM CDT MON MAY 23 2016

NOTE: "FAIR" INDICATES FEW OR NO CLOUDS BELOW 12,000 FEET WITH NO
       SIGNIFICANT WEATHER AND/OR OBSTRUCTIONS TO VISIBILITY.
       CURRENT SKY AND/OR WEATHER CONDITIONS ARE NOT AVAILABLE FOR
       CHILLICOTHE AND FARMINGTON.

MOZ001>031-035>038-043-044-053-054-240500-
...NORTHERN AND WESTERN MISSOURI...

CITY           SKY/WX    TMP DP  RH WIND       PRES   REMARKS
KANSAS CTY INT CLOUDY    62  59  90 S8        29.89R
KANSAS C DTWN  PTCLDY    68  60  75 S9        29.89R
LEE`S SUMMIT   PTCLDY    67  60  78 S9        29.90R
ST JOSEPH      CLOUDY    65  62  90 S6        29.87R
CHILLICOTHE      N/A     68  62  81 S3        29.89R
KIRKSVILLE     MOCLDY    64  57  78 SE8       29.91R

$$
MOZ066>068-077>081-088>096-101>105-240500-
...SOUTHWEST MISSOURI...

CITY           SKY/WX    TMP DP  RH WIND       PRES   REMARKS
SPRINGFIELD    CLOUDY    63  61  93 S14       29.92R
JOPLIN         PTCLDY    63  61  93 S9        29.91R

$$
MOZ032>034-039>042-045>050-055>058-069>072-240500-
...CENTRAL MISSOURI...

CITY           SKY/WX    TMP DP  RH WIND       PRES   REMARKS
COLUMBIA       CLOUDY    68  57  68 SW7       29.94R
JEFFERSON CITY CLOUDY    73  56  54 CALM      29.92R
ROLLA          CLOUDY    66  54  65 S9        29.93R
SEDALIA        PTCLDY    69  61  75 SW7       29.92R
WHITEMAN AFB   PTCLDY    64  64 100 SW8       29.91R
WARRENSBURG    PTCLDY    63  59  88 SE5       29.90R

$$
MOZ051-052-059>065-240500-
...EAST CENTRAL MISSOURI...

CITY           SKY/WX    TMP DP  RH WIND       PRES   REMARKS
ST LOUIS INTL  NOT AVBL
SPIRIT OF STL  CLOUDY    70  56  61 S3        29.92S
ST CHARLES     MOCLDY    69  56  62 S7        29.93R

$$
MOZ072>076-082>087-097>100-106>115-240500-
...SOUTH CENTRAL AND SOUTHEAST MISSOURI...

CITY           SKY/WX    TMP DP  RH WIND       PRES   REMARKS
CAPE GIRARDEAU PTCLDY    65  61  87 E7        29.95F
FARMINGTON     PTCLDY    60  57  89 CALM      29.98R
POPLAR BLUFF   CLEAR     66  62  87 N3        29.96R
WEST PLAINS    PTCLDY    67  57  70 S5        29.97S

$$



USA.gov is the U.S. government's official web portal to all federal, state and local government web resources and services.